User: anonymous
Location: Unspecified
(0.0000°N, 0.0000°E)
Time: 06:15:29
(UTC+00:00)
Language:

CANX 3A (UNIBRITE) - Orbit

View from above orbital plane
View from above orbital plane
View from above satellite
View from above satellite

Ground track
Ground track

The orbit data is extracted from the following two-line orbital elements,

1 39092U 13009G   14242.53985008  .00000486  00000-0  18751-3 0  4591
2 39092 098.6153 076.8489 0010372 087.5827 272.6556 14.34592795 78983
Epoch (UTC): 30 August 2014 12:57:23
Eccentricity: 0.0010372
inclination: 98.6153°
perigee height: 769 km
apogee height: 784 km
right ascension of ascending node: 76.8489°
argument of perigee: 87.5827°
revolutions per day: 14.34592795
mean anomaly at epoch: 272.6556°
orbit number at epoch: 7898

The dashed part of the orbit path shows where the satellite is in the earth's shadow,  

DLR